TimeEST,TemperatureF,Dew PointF,Humidity,Sea Level PressureIn,VisibilityMPH,Wind Direction,Wind SpeedMPH,Gust SpeedMPH,PrecipitationIn,Events,Conditions,WindDirDegrees,DateUTC
12:15 AM,16.5,8.4,70,30.19,1.5,NNW,18.4,29.9,N/A,Snow,Light Snow,340,2013-01-24 05:15:00
12:35 AM,17.6,9.5,71,30.20,1.8,North,15.0,24.2,N/A,Snow,Light Snow,350,2013-01-24 05:35:00
12:55 AM,16.5,11.3,80,30.22,0.5,NNW,18.4,26.5,N/A,Snow,Heavy Snow,340,2013-01-24 05:55:00
1:14 AM,16.5,12.0,82,30.22,0.5,North,18.4,27.6,N/A,Snow,Heavy Snow,350,2013-01-24 06:14:00
1:35 AM,17.6,10.8,75,30.25,-9999.0,North,10.4,19.6,N/A,,Overcast,10,2013-01-24 06:35:00
1:55 AM,17.6,5.9,60,30.26,10.0,NNE,8.1,17.3,N/A,,Overcast,30,2013-01-24 06:55:00
2:15 AM,15.8,4.8,62,30.27,10.0,NE,9.2,16.1,N/A,,Overcast,40,2013-01-24 07:15:00
2:35 AM,15.3,5.2,64,30.30,10.0,NNE,10.4,16.1,N/A,,Mostly Cloudy,30,2013-01-24 07:35:00
2:55 AM,15.3,8.6,75,30.32,5.0,ENE,9.2,-,N/A,Snow,Light Snow,60,2013-01-24 07:55:00
3:15 AM,13.3,7.0,76,30.35,10.0,ENE,5.8,-,N/A,,Scattered Clouds,60,2013-01-24 08:15:00
3:35 AM,12.7,5.5,73,30.36,10.0,NE,4.6,-,N/A,,Mostly Cloudy,50,2013-01-24 08:35:00
3:55 AM,12.7,5.5,73,30.37,10.0,ENE,4.6,-,N/A,,Overcast,60,2013-01-24 08:55:00
4:15 AM,11.3,4.1,73,30.39,10.0,Calm,Calm,-,N/A,,Overcast,0,2013-01-24 09:15:00
4:35 AM,11.3,4.1,73,30.41,10.0,Calm,Calm,-,N/A,,Overcast,0,2013-01-24 09:35:00
4:54 AM,11.3,3.9,72,30.42,10.0,Calm,Calm,-,N/A,,Overcast,0,2013-01-24 09:54:00
5:15 AM,11.3,4.1,73,30.44,5.0,Calm,Calm,-,N/A,Snow,Light Snow,0,2013-01-24 10:15:00
5:35 AM,10.9,4.1,74,30.45,2.0,ENE,3.5,-,N/A,Snow,Light Snow,70,2013-01-24 10:35:00
5:54 AM,10.2,3.7,75,30.45,3.0,ENE,4.6,-,N/A,Snow,Light Snow,70,2013-01-24 10:54:00
6:15 AM,10.0,4.1,77,30.47,2.0,East,4.6,-,N/A,Snow,Light Snow,80,2013-01-24 11:15:00
6:34 AM,10.0,4.1,77,30.48,2.5,East,4.6,-,N/A,Snow,Light Snow,80,2013-01-24 11:34:00
6:55 AM,10.0,4.5,78,30.50,1.8,East,3.5,-,N/A,Snow,Light Snow,90,2013-01-24 11:55:00
7:15 AM,10.0,4.5,78,30.51,2.0,East,5.8,-,N/A,Snow,Light Snow,90,2013-01-24 12:15:00
7:34 AM,10.0,4.1,77,30.52,1.8,East,6.9,-,N/A,Snow,Light Snow,80,2013-01-24 12:34:00
7:55 AM,10.0,4.5,78,30.53,1.8,East,5.8,-,N/A,Snow,Light Snow,90,2013-01-24 12:55:00
8:15 AM,10.0,4.5,78,30.54,1.2,East,4.6,-,N/A,Snow,Light Snow,100,2013-01-24 13:15:00
8:34 AM,10.0,4.1,77,30.54,1.8,East,6.9,-,N/A,Snow,Light Snow,90,2013-01-24 13:34:00
8:55 AM,10.0,3.6,75,30.56,2.5,East,6.9,-,N/A,Snow,Light Snow,100,2013-01-24 13:55:00
9:15 AM,10.0,2.7,72,30.57,7.0,East,6.9,-,N/A,Snow,Light Snow,80,2013-01-24 14:15:00
9:35 AM,10.0,1.2,68,30.58,7.0,East,10.4,-,N/A,,Overcast,80,2013-01-24 14:35:00
9:55 AM,10.0,0.9,66,30.59,10.0,East,10.4,-,N/A,,Overcast,80,2013-01-24 14:55:00
10:14 AM,10.0,0.3,65,30.61,10.0,East,8.1,-,N/A,,Scattered Clouds,80,2013-01-24 15:14:00
10:35 AM,10.0,-0.4,63,30.61,10.0,East,10.4,-,N/A,,Clear,80,2013-01-24 15:35:00
10:55 AM,10.0,-0.8,62,30.61,10.0,East,9.2,-,N/A,,Clear,80,2013-01-24 15:55:00
11:15 AM,10.0,-0.8,62,30.61,10.0,East,8.1,-,N/A,,Clear,90,2013-01-24 16:15:00
11:35 AM,10.0,-1.3,60,30.60,10.0,ESE,5.8,-,N/A,,Clear,110,2013-01-24 16:35:00
11:55 AM,11.3,-1.3,57,30.60,10.0,East,6.9,-,N/A,,Clear,90,2013-01-24 16:55:00
12:15 PM,12.7,-0.4,56,30.60,10.0,East,8.1,-,N/A,,Clear,90,2013-01-24 17:15:00
12:35 PM,12.7,-0.6,55,30.59,10.0,East,9.2,-,N/A,,Clear,100,2013-01-24 17:35:00
12:55 PM,12.7,-1.3,54,30.58,10.0,East,8.1,-,N/A,,Clear,100,2013-01-24 17:55:00
1:15 PM,12.7,-0.9,54,30.57,10.0,East,6.9,-,N/A,,Clear,100,2013-01-24 18:15:00
1:35 PM,13.1,-0.2,55,30.58,10.0,East,5.8,-,N/A,,Clear,90,2013-01-24 18:35:00
1:54 PM,15.3,1.4,54,30.57,10.0,East,3.5,-,N/A,,Clear,100,2013-01-24 18:54:00
2:15 PM,15.3,1.8,55,30.56,10.0,ESE,5.8,-,N/A,,Mostly Cloudy,120,2013-01-24 19:15:00
2:35 PM,15.3,1.6,55,30.55,10.0,SE,4.6,-,N/A,,Scattered Clouds,130,2013-01-24 19:35:00
2:55 PM,15.3,1.0,53,30.55,10.0,East,4.6,-,N/A,,Clear,100,2013-01-24 19:55:00
3:15 PM,15.3,0.5,52,30.56,10.0,SE,3.5,-,N/A,,Clear,130,2013-01-24 20:15:00
3:34 PM,15.3,0.9,53,30.56,10.0,SE,3.5,-,N/A,,Clear,140,2013-01-24 20:34:00
3:55 PM,15.3,0.5,52,30.56,10.0,Calm,Calm,-,N/A,,Clear,0,2013-01-24 20:55:00
4:15 PM,15.3,1.0,53,30.55,10.0,Calm,Calm,-,N/A,,Clear,0,2013-01-24 21:15:00
4:34 PM,15.3,1.4,54,30.55,10.0,Calm,Calm,-,N/A,,Clear,0,2013-01-24 21:34:00
4:55 PM,15.3,1.6,55,30.55,10.0,Calm,Calm,-,N/A,,Clear,0,2013-01-24 21:55:00
5:14 PM,15.3,1.0,53,30.55,10.0,Calm,Calm,-,N/A,,Clear,0,2013-01-24 22:14:00
5:35 PM,12.7,0.7,59,30.55,10.0,Calm,Calm,-,N/A,,Clear,0,2013-01-24 22:35:00
5:55 PM,12.7,3.0,65,30.54,10.0,East,3.5,-,N/A,,Clear,100,2013-01-24 22:55:00
6:14 PM,12.7,3.2,66,30.54,10.0,Calm,Calm,-,N/A,,Scattered Clouds,0,2013-01-24 23:14:00
6:35 PM,12.6,3.9,68,30.53,10.0,Calm,Calm,-,N/A,,Mostly Cloudy,0,2013-01-24 23:35:00
6:55 PM,12.7,4.1,68,30.52,10.0,SE,3.5,-,N/A,,Mostly Cloudy,140,2013-01-24 23:55:00
7:14 PM,12.7,2.3,63,30.51,10.0,ESE,3.5,-,N/A,,Scattered Clouds,120,2013-01-25 00:14:00
7:35 PM,12.7,2.8,65,30.50,10.0,ESE,3.5,-,N/A,,Clear,120,2013-01-25 00:35:00
7:55 PM,14.0,3.6,63,30.49,10.0,SE,4.6,-,N/A,,Clear,140,2013-01-25 00:55:00
8:14 PM,14.4,4.1,64,30.48,10.0,SE,4.6,-,N/A,,Clear,130,2013-01-25 01:14:00
8:35 PM,14.2,4.3,65,30.48,10.0,SE,4.6,-,N/A,,Mostly Cloudy,140,2013-01-25 01:35:00
8:55 PM,15.3,4.8,63,30.46,10.0,SE,5.8,-,N/A,,Overcast,130,2013-01-25 01:55:00
9:14 PM,15.3,4.6,63,30.46,10.0,SE,4.6,-,N/A,,Overcast,140,2013-01-25 02:14:00
9:35 PM,15.3,4.5,62,30.45,10.0,SE,5.8,-,N/A,,Overcast,130,2013-01-25 02:35:00
9:55 PM,15.3,4.1,61,30.46,10.0,SE,4.6,-,N/A,,Overcast,140,2013-01-25 02:55:00
10:15 PM,15.3,4.1,61,30.45,10.0,SE,6.9,-,N/A,,Overcast,140,2013-01-25 03:15:00
10:35 PM,15.3,4.5,62,30.44,10.0,SE,8.1,-,N/A,,Overcast,140,2013-01-25 03:35:00
10:55 PM,15.3,4.8,63,30.43,10.0,SE,6.9,-,N/A,,Overcast,140,2013-01-25 03:55:00
11:15 PM,15.3,4.1,61,30.42,10.0,SSE,6.9,-,N/A,,Overcast,150,2013-01-25 04:15:00
11:35 PM,15.3,3.0,58,30.42,10.0,SSE,10.4,16.1,N/A,,Overcast,150,2013-01-25 04:35:00
11:54 PM,15.3,3.2,59,30.41,10.0,SSE,8.1,-,N/A,,Overcast,150,2013-01-25 04:54:00